Time,TemperatureF,DewpointF,PressureIn,WindDirection,WindDirectionDegrees,WindSpeedMPH,WindSpeedGustMPH,Humidity,HourlyPrecipIn,Conditions,Clouds,dailyrainin,SoftwareType,DateUTC
2013-04-08 00:00:00,39.8,31.0,29.66,North,355,0.0,5.0,71,0.00,,,0.00,weatherlink.com 1.10,2013-04-08 06:00:00,
2013-04-08 00:15:00,39.8,31.0,29.66,North,360,3.0,4.0,70,0.00,,,0.00,weatherlink.com 1.10,2013-04-08 06:15:00,
2013-04-08 00:30:00,40.4,31.0,29.66,NNE,18,4.0,8.0,68,0.00,,,0.00,weatherlink.com 1.10,2013-04-08 06:30:00,
2013-04-08 00:45:00,40.0,31.0,29.66,North,350,8.0,12.0,70,0.00,,,0.00,weatherlink.com 1.10,2013-04-08 06:45:00,
2013-04-08 01:00:00,39.6,31.0,29.66,North,360,6.0,11.0,71,0.00,,,0.00,weatherlink.com 1.10,2013-04-08 07:00:00,
2013-04-08 01:15:00,39.6,31.0,29.66,North,350,4.0,8.0,72,0.00,,,0.00,weatherlink.com 1.10,2013-04-08 07:15:00,
2013-04-08 01:30:00,39.2,32.0,29.67,NNW,327,3.0,6.0,74,0.00,,,0.00,weatherlink.com 1.10,2013-04-08 07:30:00,
2013-04-08 01:45:00,38.6,32.0,29.67,NW,310,3.0,9.0,77,0.00,,,0.00,weatherlink.com 1.10,2013-04-08 07:45:00,
2013-04-08 02:00:00,38.3,32.0,29.68,NW,310,2.0,7.0,79,0.00,,,0.00,weatherlink.com 1.10,2013-04-08 08:00:00,
2013-04-08 02:15:00,38.0,32.0,29.68,NNW,339,5.0,7.0,79,0.00,,,0.00,weatherlink.com 1.10,2013-04-08 08:15:00,
2013-04-08 02:30:00,37.9,32.0,29.69,North,9,6.0,8.0,80,0.00,,,0.00,weatherlink.com 1.10,2013-04-08 08:30:00,
2013-04-08 02:45:00,38.1,33.0,29.68,NNE,13,6.0,10.0,81,0.00,,,0.00,weatherlink.com 1.10,2013-04-08 08:45:00,
2013-04-08 03:00:00,37.9,33.0,29.68,NNW,340,5.0,10.0,81,0.00,,,0.00,weatherlink.com 1.10,2013-04-08 09:00:00,
2013-04-08 03:16:00,37.7,32.0,29.68,NNW,346,4.0,8.0,81,0.00,,,0.00,weatherlink.com 1.10,2013-04-08 09:16:00,
2013-04-08 03:31:00,37.5,33.0,29.69,NNW,331,7.0,9.0,84,0.00,,,0.00,weatherlink.com 1.10,2013-04-08 09:31:00,
2013-04-08 03:46:00,37.4,33.0,29.69,NW,316,5.0,11.0,84,0.00,,,0.00,weatherlink.com 1.10,2013-04-08 09:46:00,
2013-04-08 04:01:00,37.4,28.0,29.70,East,88,3.0,14.0,70,0.00,,,0.00,weatherlink.com 1.10,2013-04-08 10:01:00,
2013-04-08 04:16:00,38.0,27.0,29.70,ESE,115,10.0,22.0,64,0.00,,,0.00,weatherlink.com 1.10,2013-04-08 10:16:00,
2013-04-08 04:46:00,37.7,29.0,29.70,ESE,109,5.0,11.0,70,0.00,,,0.00,weatherlink.com 1.10,2013-04-08 10:46:00,
2013-04-08 05:31:00,37.2,26.0,29.72,ESE,111,2.0,7.0,64,0.00,,,0.00,weatherlink.com 1.10,2013-04-08 11:31:00,
2013-04-08 05:46:00,36.9,26.0,29.72,NE,50,5.0,11.0,64,0.00,,,0.00,weatherlink.com 1.10,2013-04-08 11:46:00,
2013-04-08 06:01:00,36.4,27.0,29.73,East,101,1.0,4.0,69,0.00,,,0.00,weatherlink.com 1.10,2013-04-08 12:01:00,
2013-04-08 06:16:00,36.1,23.0,29.74,NNE,24,10.0,13.0,59,0.00,,,0.00,weatherlink.com 1.10,2013-04-08 12:16:00,
2013-04-08 06:31:00,35.5,24.0,29.75,NNE,19,9.0,13.0,63,0.00,,,0.00,weatherlink.com 1.10,2013-04-08 12:31:00,
2013-04-08 06:46:00,35.4,21.0,29.75,NE,34,19.0,20.0,56,0.00,,,0.00,weatherlink.com 1.10,2013-04-08 12:46:00,
2013-04-08 07:01:00,34.8,21.0,29.76,ENE,58,11.0,18.0,57,0.00,,,0.00,weatherlink.com 1.10,2013-04-08 13:01:00,
2013-04-08 07:16:00,35.0,21.0,29.78,NNE,12,10.0,19.0,56,0.00,,,0.00,weatherlink.com 1.10,2013-04-08 13:16:00,
2013-04-08 07:31:00,35.3,21.0,29.79,NE,51,9.0,17.0,57,0.00,,,0.00,weatherlink.com 1.10,2013-04-08 13:31:00,
2013-04-08 07:46:00,35.1,19.0,29.80,NE,35,11.0,19.0,53,0.00,,,0.00,weatherlink.com 1.10,2013-04-08 13:46:00,
2013-04-08 08:01:00,34.9,19.0,29.81,NE,49,7.0,22.0,52,0.00,,,0.00,weatherlink.com 1.10,2013-04-08 14:01:00,
2013-04-08 08:17:00,34.8,18.0,29.82,North,11,5.0,21.0,50,0.00,,,0.00,weatherlink.com 1.10,2013-04-08 14:17:00,
2013-04-08 08:32:00,34.7,18.0,29.83,NE,51,15.0,22.0,50,0.00,,,0.00,weatherlink.com 1.10,2013-04-08 14:32:00,
2013-04-08 08:47:00,34.6,17.0,29.84,NNE,28,13.0,21.0,49,0.00,,,0.00,weatherlink.com 1.10,2013-04-08 14:47:00,
2013-04-08 09:02:00,34.6,18.0,29.84,NNE,13,14.0,25.0,50,0.00,,,0.00,weatherlink.com 1.10,2013-04-08 15:02:00,
2013-04-08 09:17:00,34.7,18.0,29.85,NNE,22,16.0,19.0,50,0.00,,,0.00,weatherlink.com 1.10,2013-04-08 15:17:00,
2013-04-08 09:32:00,34.6,17.0,29.85,North,5,11.0,24.0,49,0.00,,,0.00,weatherlink.com 1.10,2013-04-08 15:32:00,
2013-04-08 09:47:00,35.1,18.0,29.86,NNE,25,13.0,19.0,49,0.00,,,0.00,weatherlink.com 1.10,2013-04-08 15:47:00,
2013-04-08 10:17:00,35.2,17.0,29.86,NNW,328,7.0,22.0,48,0.00,,,0.00,weatherlink.com 1.10,2013-04-08 16:17:00,
2013-04-08 10:32:00,36.7,17.0,29.87,NNE,32,8.0,23.0,44,0.00,,,0.00,weatherlink.com 1.10,2013-04-08 16:32:00,
2013-04-08 10:47:00,36.0,18.0,29.87,NE,52,14.0,23.0,48,0.00,,,0.00,weatherlink.com 1.10,2013-04-08 16:47:00,
2013-04-08 11:02:00,36.8,18.0,29.88,NNE,13,9.0,18.0,46,0.00,,,0.00,weatherlink.com 1.10,2013-04-08 17:02:00,
2013-04-08 11:17:00,36.5,18.0,29.89,NE,43,15.0,21.0,47,0.00,,,0.00,weatherlink.com 1.10,2013-04-08 17:17:00,
2013-04-08 11:32:00,38.5,19.0,29.90,NE,53,11.0,22.0,45,0.00,,,0.00,weatherlink.com 1.10,2013-04-08 17:32:00,
2013-04-08 11:47:00,38.4,19.0,29.91,NE,49,12.0,17.0,45,0.00,,,0.00,weatherlink.com 1.10,2013-04-08 17:47:00,
2013-04-08 12:02:00,37.3,18.0,29.91,East,92,9.0,24.0,46,0.00,,,0.00,weatherlink.com 1.10,2013-04-08 18:02:00,
2013-04-08 12:17:00,37.4,18.0,29.92,ENE,59,14.0,21.0,45,0.00,,,0.00,weatherlink.com 1.10,2013-04-08 18:17:00,
2013-04-08 12:32:00,38.6,18.0,29.93,ENE,62,9.0,17.0,44,0.00,,,0.00,weatherlink.com 1.10,2013-04-08 18:32:00,
2013-04-08 12:47:00,38.5,20.0,29.94,North,360,9.0,15.0,47,0.00,,,0.00,weatherlink.com 1.10,2013-04-08 18:47:00,
2013-04-08 13:02:00,38.7,19.0,29.94,East,94,11.0,17.0,45,0.00,,,0.00,weatherlink.com 1.10,2013-04-08 19:02:00,
2013-04-08 13:17:00,38.7,20.0,29.95,NE,34,6.0,13.0,47,0.00,,,0.00,weatherlink.com 1.10,2013-04-08 19:17:00,
2013-04-08 13:32:00,38.6,18.0,29.95,East,91,3.0,11.0,44,0.00,,,0.00,weatherlink.com 1.10,2013-04-08 19:32:00,
2013-04-08 13:47:00,39.5,20.0,29.95,North,355,0.0,13.0,45,0.00,,,0.00,weatherlink.com 1.10,2013-04-08 19:47:00,
2013-04-08 14:02:00,40.7,19.0,29.95,NNE,31,2.0,14.0,41,0.00,,,0.00,weatherlink.com 1.10,2013-04-08 20:02:00,
2013-04-08 14:17:00,40.8,17.0,29.95,ENE,73,9.0,12.0,39,0.00,,,0.00,weatherlink.com 1.10,2013-04-08 20:17:00,
2013-04-08 14:32:00,40.8,18.0,29.95,NNE,33,10.0,14.0,40,0.00,,,0.00,weatherlink.com 1.10,2013-04-08 20:32:00,
2013-04-08 14:47:00,41.3,18.0,29.94,WNW,298,0.0,7.0,40,0.00,,,0.00,weatherlink.com 1.10,2013-04-08 20:47:00,
2013-04-08 15:02:00,41.1,18.0,29.94,NE,44,3.0,11.0,40,0.00,,,0.00,weatherlink.com 1.10,2013-04-08 21:02:00,
2013-04-08 15:17:00,41.2,18.0,29.94,WNW,296,5.0,12.0,39,0.00,,,0.00,weatherlink.com 1.10,2013-04-08 21:17:00,
2013-04-08 15:33:00,42.5,18.0,29.95,NNW,342,8.0,15.0,38,0.00,,,0.00,weatherlink.com 1.10,2013-04-08 21:33:00,
2013-04-08 15:48:00,42.3,18.0,29.94,NNE,15,6.0,15.0,37,0.00,,,0.00,weatherlink.com 1.10,2013-04-08 21:48:00,
2013-04-08 16:03:00,42.7,17.0,29.95,NW,325,6.0,13.0,36,0.00,,,0.00,weatherlink.com 1.10,2013-04-08 22:03:00,
2013-04-08 16:18:00,42.6,17.0,29.94,NNW,339,9.0,16.0,36,0.00,,,0.00,weatherlink.com 1.10,2013-04-08 22:18:00,
2013-04-08 16:33:00,42.7,19.0,29.94,WNW,298,7.0,21.0,39,0.00,,,0.00,weatherlink.com 1.10,2013-04-08 22:33:00,
2013-04-08 16:48:00,41.0,16.0,29.96,NNW,348,10.0,20.0,37,0.00,,,0.00,weatherlink.com 1.10,2013-04-08 22:48:00,
2013-04-08 17:03:00,42.2,17.0,29.96,NW,325,7.0,14.0,37,0.00,,,0.00,weatherlink.com 1.10,2013-04-08 23:03:00,
2013-04-08 17:18:00,41.2,15.0,29.97,East,84,5.0,12.0,35,0.00,,,0.00,weatherlink.com 1.10,2013-04-08 23:18:00,
2013-04-08 17:33:00,41.3,15.0,29.97,NE,39,10.0,15.0,35,0.00,,,0.00,weatherlink.com 1.10,2013-04-08 23:33:00,
2013-04-08 17:48:00,40.4,15.0,29.98,ENE,63,9.0,13.0,35,0.00,,,0.00,weatherlink.com 1.10,2013-04-08 23:48:00,
2013-04-08 18:03:00,41.3,16.0,29.99,North,360,11.0,12.0,36,0.00,,,0.00,weatherlink.com 1.10,2013-04-09 00:03:00,
2013-04-08 18:18:00,40.3,15.0,30.00,NE,53,9.0,16.0,35,0.00,,,0.00,weatherlink.com 1.10,2013-04-09 00:18:00,
2013-04-08 18:33:00,39.7,15.0,30.00,NE,45,6.0,15.0,36,0.00,,,0.00,weatherlink.com 1.10,2013-04-09 00:33:00,
2013-04-08 18:48:00,38.8,16.0,30.01,NNE,29,10.0,19.0,39,0.00,,,0.00,weatherlink.com 1.10,2013-04-09 00:48:00,
2013-04-08 19:03:00,38.1,15.0,30.02,NNE,14,11.0,12.0,39,0.00,,,0.00,weatherlink.com 1.10,2013-04-09 01:03:00,
2013-04-08 19:18:00,37.7,15.0,30.02,NNE,19,10.0,12.0,40,0.00,,,0.00,weatherlink.com 1.10,2013-04-09 01:18:00,
2013-04-08 19:33:00,37.0,15.0,30.03,NE,40,4.0,10.0,41,0.00,,,0.00,weatherlink.com 1.10,2013-04-09 01:33:00,
2013-04-08 19:48:00,36.3,15.0,30.04,NE,55,9.0,10.0,42,0.00,,,0.00,weatherlink.com 1.10,2013-04-09 01:48:00,
2013-04-08 20:03:00,35.7,14.0,30.05,NE,53,10.0,12.0,41,0.00,,,0.00,weatherlink.com 1.10,2013-04-09 02:03:00,
2013-04-08 20:18:00,35.4,14.0,30.06,NE,51,10.0,15.0,41,0.00,,,0.00,weatherlink.com 1.10,2013-04-09 02:18:00,
2013-04-08 20:33:00,35.2,14.0,30.07,NNE,19,5.0,12.0,41,0.00,,,0.00,weatherlink.com 1.10,2013-04-09 02:33:00,
2013-04-08 20:48:00,34.3,13.0,30.08,NNE,28,7.0,11.0,42,0.00,,,0.00,weatherlink.com 1.10,2013-04-09 02:48:00,
2013-04-08 21:03:00,33.6,13.0,30.09,NE,55,6.0,7.0,42,0.00,,,0.00,weatherlink.com 1.10,2013-04-09 03:03:00,
2013-04-08 21:18:00,33.1,13.0,30.11,North,355,1.0,6.0,43,0.00,,,0.00,weatherlink.com 1.10,2013-04-09 03:18:00,
2013-04-08 21:49:00,32.3,13.0,30.12,NNW,335,2.0,7.0,46,0.00,,,0.00,weatherlink.com 1.10,2013-04-09 03:49:00,
2013-04-08 22:19:00,31.6,13.0,30.14,NNW,334,1.0,5.0,47,0.00,,,0.00,weatherlink.com 1.10,2013-04-09 04:19:00,
2013-04-08 22:34:00,30.1,15.0,30.15,NNE,15,8.0,12.0,53,0.00,,,0.00,weatherlink.com 1.10,2013-04-09 04:34:00,
2013-04-08 22:49:00,31.2,13.0,30.16,North,5,11.0,12.0,48,0.00,,,0.00,weatherlink.com 1.10,2013-04-09 04:49:00,
2013-04-08 23:04:00,30.7,13.0,30.17,NE,42,8.0,13.0,49,0.00,,,0.00,weatherlink.com 1.10,2013-04-09 05:04:00,
2013-04-08 23:19:00,29.6,13.0,30.16,NE,40,10.0,16.0,50,0.00,,,0.00,weatherlink.com 1.10,2013-04-09 05:19:00,
2013-04-08 23:34:00,29.6,12.0,30.16,NNE,32,9.0,15.0,49,0.00,,,0.00,weatherlink.com 1.10,2013-04-09 05:34:00,
2013-04-08 23:49:00,28.7,13.0,30.17,East,86,3.0,5.0,51,0.00,,,0.00,weatherlink.com 1.10,2013-04-09 05:49:00,